COSMOS 1275 DEB, 14740

Orbit data source: Space-Track

COSMOS 1275 DEB, 14740 is space debris in LEO originally from a launch on Thu, 04 Jun 1981 UTC launched from the Plesetsk Missile And Space Complex (PKMTR). Debris objects in space refer to the collection of defunct objects orbiting the Earth. Examples of debris include non-operational satellites, rocket bodies, and fragments generated from explosions, collisions, or faulty payload assembly.

Loading next visibility...
Identifier
14740, 1981-053JV
Orbit
LEO
Country
Flag of CISCIS
Related business
Manufacturer
Unknown
Mission
Spacecraft
Bus & Motor
Unknown
Mass
Unknown
Launch date (UTC)
1981-06-04 (44 years ago)
Launch vehicle
Unknown
Launch site
Plesetsk Missile And Space Complex (PKMTR)
Object type
Payload
Rocket body
Debris
Shape & HBR
Unknown shape, 0.1 m
Radar Cross Section
Small (<0.1 m²)

Expand to show TLE details & history
Last TLE update: 10 hours ago

TLE from 10 hours ago
0 COSMOS 1275 DEB
1 14740U 81053JV  25298.90850904  .00002060  00000-0  16881-2 0  9998
2 14740  83.1340 152.8573 0102903 348.7458  72.3696 13.86612496 85431
Epoch: 2025-10-25T21:48Z
TLE epoch observation values (Epoch: 2025-10-25T21:48:15.181Z)
Latitude
61.56463°
Longitude
164.04152°
Altitude
928.961 km
Speed
7.404 km/s
True Right ascension
11h 02m 32s
True Declination
61° 25' 26"
Sunlit
Object was in daylight at epoch
Visualization orbit readout
Latitude
Unknown
Longitude
Unknown
Altitude
Unknown
Speed
Unknown
Apparent Right ascension
Unknown
Apparent Declination
Unknown
Sunlit
N/A
Visualization observer readout
Local Sidereal Time
02:45:27
Azimuth
Unknown
Elevation
Unknown
Doppler factor
Unknown
Orbital elements
Apogee altitude
1,012.933 km
Perigee altitude
862.37 km
Semi-major axis
7,315.788 km
Eccentricity
0.01029
Inclination
83.134°
RAAN
152.8573°
Arg. of periapsis
348.7458°
True anomaly
73.49772°
Mean anomaly
72.3696°
Eccentric anomaly
72.93323°
Mean motion
3.46858 °/min
Orbital period
103.79 mins
BSTAR
0.0016881
Loading maneuver chart data...
Computing Atmospheric mass density...
Loading historical data...
Loading historical data...
Loading historical data...
Loading historical data...
Loading historical data...
Loading historical data...
Loading historical data...

Documentation

Showing up to 5 results
|